sat.trackr.live / text

‹ back to catalog

SWIFT

NORAD 28485 · 2004-047A

PAYLOAD ACTIVE UNKNOWN

§ Identity

Operator
Country
US
Launch date
2004-11-20
Launch site
AFETR
Launch vehicle
Mass (kg)
RCS (m²)
7.69

Purposes: science

External: N2YO · Heavens-Above · Gunter

§ Orbital elements

Epoch: 2026-09-19T22:40:43.411296Z

Period
91.00 min
Inclination
20.5502°
Eccentricity
0.0003371
Mean motion
15.82400899 rev/d
Perigee alt
321.4 km
Apogee alt
325.9 km
Semi-major
6,701.8 km
B*
7.0289e-4
RAAN
167.9731°
Arg perigee
273.4211°
Mean anomaly
86.5852°
Rev number
20,181

§ Raw data

SWIFT1 28485U 04047A   26262.94494689  .00157352  00000+0  70289-3 0  99942 28485  20.5502 167.9731 0003371 273.4211  86.5852 15.82400899201813

JSON: /api/v1/satellites/28485 · /tle

For live sub-satellite position, see the globe view (requires WebGL).

§ Visibility from observer

Set your observer location to see the next 7 days of passes ≥ 10°. The values pass through the URL so the page stays shareable.

No JS? Fill the form by hand. The geolocation button needs JavaScript.